{"data":{"norad_id":54771,"intl_designator":"2022-175P","name":"STARLINK-5451","alt_names":[],"object_type":"PAYLOAD","status":"ACTIVE","operator":null,"country":"US","launch_date":"2022-12-17","launch_site_code":"AFETR","launch_vehicle":null,"mission":null,"orbit_class":"UNKNOWN","rcs_meters":null,"size_class":null,"mass_kg":null,"dimensions":null,"purposes":["comms"],"wikipedia_slug":null,"has_3d_model":false,"image_url":null,"decayed_at":null,"tle_current":{"epoch":"2026-09-20T13:05:43.752192Z","epoch_age_seconds":85732,"freshness":"FRESH","line1":"1 54771U 22175P   26263.54564528  .00000735  00000+0  40825-4 0  9996","line2":"2 54771  53.1587 234.0821 0001412  86.2971 273.8190 15.26517290209544","mean_motion":15.2651729,"eccentricity":0.0001412,"inclination_deg":53.1587,"raan_deg":234.0821,"arg_perigee_deg":86.2971,"mean_anomaly_deg":273.819,"bstar":4.0825e-5,"rev_number":20954,"period_min":94.332374053883,"perigee_km":485.26382896988,"apogee_km":487.20232707991,"semimajor_km":6864.3700780249,"source":"CELESTRAK","updated_at":"2026-09-21T09:00:33.122249Z"}}}